Starlink 32876

operational
NORAD ID: 63151 Int'l Des: 2025-043 Owner: SPXS Country: US Constellation: starlink
LEOCIRCULAR

关于 Starlink 32876

正在加载描述...

实时位置

正在加载3D地球...

即将过境

高度历史

Altitude vs Time

uPlot chart will show altitude changes over time

两行轨道根数

1 63151U 25043V 25305.57188736 .00039873 00000-0 14490-2 0 9990
2 63151 42.9979 19.3165 0001408 264.4233 95.6458 15.27618439 37777
Epoch: Nov 1, 2025 • Age: 8 hours

当前状态

高度 486.4 km
速度 7.63 km/s
星下点 40.92°N, 117.76°E
发射日期 Mar 3, 2025
运行时间 0.6 years
类型 internet

技术详情

分类 Payload
质量 730.00 kg
干质量 700.00 kg
总质量 730.00 kg
长度 0.30 m
直径 4.10 m
跨度 29.00 m
形状 Box + pan
制造商 SPXS
平台类型 Starlink V2M
阶段状态 In Orbit
所有者/国家 SPXS/US

大型星座

Loading constellations...